Amateur Radio Satellites - All Passes

Search period start: 19 June 2013 13:32
Search period end: 20 June 2013 13:32
Location: Marysville Observatory, 48.1092°N, 122.1645°W

Satellite Date Start Highest point End Downlink Frequencies (MHz)
Time Altitude Azimuth
ITAMSAT 1 19 Jun 13:35:51 13:40:48 46° 68° (ENE) 13:45:48 435.822 SSB
AO-27 19 Jun 13:36:58 13:41:58 48° 68° (ENE) 13:46:59 436.795 MHz FM
OPAL 19 Jun 13:44:09 13:47:47 21° 303° (WNW) 13:51:25 ?
Oscar 16 19 Jun 13:55:21 14:00:33 89° 74° (ENE) 14:05:45 437.025 USB, Beacon 2401.1428
Uribyol 2 19 Jun 14:09:03 14:14:17 88° 74° (ENE) 14:19:34 436.500 FM
AO-Echo 19 Jun 14:12:17 14:16:33 35° 66° (ENE) 14:20:57 ?
Uosat F 19 Jun 14:32:24 14:36:26 25° 61° (ENE) 14:40:30 435.120 FM
AO-7 19 Jun 14:33:34 14:38:56 19° 41° (NE) 14:44:19 29.400 - 29.500 MHz
TMSAT-1 19 Jun 14:34:54 14:38:27 19° 57° (ENE) 14:42:00 436.925 FM
Oscar 19 19 Jun 14:50:04 14:54:51 37° 263° (W) 14:59:38 437.125 CW, 437.150 USB
Gurwin Techsat 1B 19 Jun 15:13:28 15:18:34 50° 68° (ENE) 15:23:42 435.225 FM
ITAMSAT 1 19 Jun 15:16:05 15:20:31 28° 266° (W) 15:24:59 435.822 SSB
AO-27 19 Jun 15:17:22 15:21:43 27° 267° (W) 15:26:07 436.795 MHz FM
RS-15 19 Jun 15:19:34 15:30:27 41° 336° (NNW) 15:40:55 29.354 - 29.394 USB, Beacon 29.352 USB
Oscar 16 19 Jun 15:38:07 15:40:39 14° 273° (W) 15:43:11 437.025 USB, Beacon 2401.1428
AO-Echo 19 Jun 15:51:13 15:55:25 31° 265° (W) 15:59:43 ?
Uribyol 2 19 Jun 15:51:49 15:54:30 14° 273° (W) 15:57:13 436.500 FM
ISS 19 Jun 15:52:13 15:54:25 17° 138° (SE) 15:56:38 145.800 FM
Uosat F 19 Jun 16:10:05 16:14:58 51° 260° (W) 16:19:54 435.120 FM
TMSAT-1 19 Jun 16:12:28 16:17:46 80° 256° (WSW) 16:23:08 436.925 FM
AO-7 19 Jun 16:22:01 16:30:11 62° 63° (ENE) 16:38:24 29.400 - 29.500 MHz
Gurwin Techsat 1B 19 Jun 16:54:24 16:58:49 26° 267° (W) 17:03:16 435.225 FM
KITSAT 1 19 Jun 16:57:31 17:04:21 32° 108° (ESE) 17:11:14 435.175 FM
JAS-1B 19 Jun 17:19:29 17:20:17 10° 47° (NE) 17:21:04 435.800 - 435.900 CW/SSB
ISS 19 Jun 17:27:25 17:30:43 83° 156° (SSE) 17:34:01 145.800 FM
RS-15 19 Jun 17:36:21 17:46:32 35° 10° (N) 17:56:21 29.354 - 29.394 USB, Beacon 29.352 USB
TMSAT-1 19 Jun 17:56:37 17:58:35 12° 275° (W) 18:00:33 436.925 FM
AO-7 19 Jun 18:15:57 18:23:25 36° 264° (W) 18:30:58 29.400 - 29.500 MHz
STRAND 1 19 Jun 18:31:37 18:35:12 19° 90° (E) 18:38:45 ?
KITSAT 1 19 Jun 18:51:05 18:59:09 73° 309° (NW) 19:07:18 435.175 FM
Hamsat 19 Jun 19:01:10 19:05:29 67° 74° (ENE) 19:09:52 145.90 MHz
JAS-1B 19 Jun 19:03:22 19:09:50 53° 68° (ENE) 19:15:32 435.800 - 435.900 CW/SSB
ISS 19 Jun 19:04:25 19:07:35 44° 355° (N) 19:10:46 145.800 FM
JAS-2 19 Jun 19:19:03 19:20:12 11° 47° (NE) 19:21:21 435.800 - 435.900 CW/SSB, 435.910 FM
HO-68 19 Jun 19:23:55 19:28:13 17° 45° (NE) 19:32:31 435.675 MHz FM
SO-67 19 Jun 19:36:55 19:40:23 49° 73° (ENE) 19:43:52 435.3500 MHz FM
RS-15 19 Jun 19:50:26 20:01:34 63° 42° (NE) 20:12:21 29.354 - 29.394 USB, Beacon 29.352 USB
MaSat-1 19 Jun 19:58:57 20:04:06 49° 116° (ESE) 20:08:07 437.345 MHz
STRAND 1 19 Jun 20:09:45 20:14:54 67° 289° (WNW) 20:20:00 ?
Hamsat 19 Jun 20:39:37 20:42:02 15° 272° (W) 20:44:28 145.90 MHz
ISS 19 Jun 20:41:20 20:44:36 59° 15° (NNE) 20:47:52 145.800 FM
Oscar 11 19 Jun 20:45:04 20:47:50 17° 60° (ENE) 20:50:37 145.825 FM, Beacon 2401.500 USB
KITSAT 1 19 Jun 20:49:10 20:56:01 29° 335° (NNW) 21:02:56 435.175 FM
JAS-1B 19 Jun 20:55:06 21:00:47 28° 265° (W) 21:05:55 435.800 - 435.900 CW/SSB
JAS-2 19 Jun 20:57:09 21:03:56 46° 66° (ENE) 21:10:01 435.800 - 435.900 CW/SSB, 435.910 FM
HO-68 19 Jun 21:07:36 21:14:38 65° 67° (ENE) 21:21:44 435.675 MHz FM
SO-67 19 Jun 21:12:21 21:14:08 13° 270° (W) 21:15:55 435.3500 MHz FM
AO-40 19 Jun 21:18:45 02:51:26 36° 175° (S) 09:00:45 Beacon 2401.320
Saudisat 1A 19 Jun 21:25:55 21:27:36 12° 108° (ESE) 21:29:17 436.775 MHz
MaSat-1 19 Jun 21:42:04 21:46:00 24° 309° (NW) 21:49:14 437.345 MHz
OPAL 19 Jun 21:45:22 21:49:33 27° 60° (ENE) 21:53:43 ?
STRAND 1 19 Jun 21:51:10 21:53:10 12° 308° (NW) 21:55:10 ?
RS-15 19 Jun 22:03:19 22:13:40 49° 248° (WSW) 22:23:50 29.354 - 29.394 USB, Beacon 29.352 USB
ISS 19 Jun 22:18:09 22:21:12 36° 214° (SW) 22:24:15 145.800 FM
Oscar 11 19 Jun 22:19:16 22:23:36 65° 258° (WSW) 22:27:59 145.825 FM, Beacon 2401.500 USB
JAS-2 19 Jun 22:42:13 22:49:01 41° 263° (W) 22:55:11 435.800 - 435.900 CW/SSB, 435.910 FM
KITSAT 1 19 Jun 22:48:24 22:54:27 22° 5° (N) 23:00:30 435.175 FM
HO-68 19 Jun 22:56:49 23:02:51 29° 267° (W) 23:08:56 435.675 MHz FM
Saudisat 1A 19 Jun 23:01:57 23:06:32 80° 126° (SE) 23:11:10 436.775 MHz
Oscar 10/S400 19 Jun 23:03:21 04:33:46 29° 92° (E) 06:59:28 145.825 - 145.975 CW/USB, Beacon 145.810 USB
OPAL 19 Jun 23:23:25 23:28:15 47° 258° (WSW) 23:33:04 ?
PCSat 20 Jun 00:41:29 00:46:10 31° 111° (ESE) 00:50:52 145.825 MHz
Saudisat 1A 20 Jun 00:43:06 00:46:47 23° 327° (NNW) 00:50:28 436.775 MHz
KITSAT 1 20 Jun 00:45:05 00:52:32 37° 34° (NNE) 00:59:56 435.175 FM
Sapphire 20 Jun 01:15:22 01:20:36 53° 117° (ESE) 01:25:53 437.095 MHz 1200 baud AX-25 AFSK
ITAMSAT 1 20 Jun 01:47:11 01:49:13 12° 86° (E) 01:51:15 435.822 SSB
AO-27 20 Jun 01:48:15 01:50:34 13° 86° (E) 01:52:53 436.795 MHz FM
SO-50 20 Jun 01:53:21 01:58:03 63° 124° (SE) 02:02:42 436.795 FM
Oscar 16 20 Jun 02:04:09 02:08:19 24° 93° (E) 02:12:26 437.025 USB, Beacon 2401.1428
Uribyol 2 20 Jun 02:18:54 02:23:08 24° 93° (E) 02:27:20 436.500 FM
PCSat 20 Jun 02:24:06 02:29:23 51° 311° (NW) 02:34:42 145.825 MHz
Saudisat 1A 20 Jun 02:27:02 02:28:09 11° 351° (N) 02:29:16 436.775 MHz
KITSAT 1 20 Jun 02:40:36 02:48:45 80° 238° (WSW) 02:56:52 435.175 FM
Oscar 19 20 Jun 02:57:33 03:02:39 60° 101° (ESE) 03:07:42 437.125 CW, 437.150 USB
Sapphire 20 Jun 02:59:25 03:04:17 33° 318° (NW) 03:09:13 437.095 MHz 1200 baud AX-25 AFSK
ITAMSAT 1 20 Jun 03:24:18 03:29:34 82° 105° (ESE) 03:34:48 435.822 SSB
AO-27 20 Jun 03:25:37 03:30:54 86° 105° (ESE) 03:36:08 436.795 MHz FM
Gurwin Techsat 1B 20 Jun 03:27:23 03:30:23 15° 87° (E) 03:33:22 435.225 FM
UOSAT-12 20 Jun 03:31:03 03:33:58 17° 111° (ESE) 03:36:55 437.025 FM, 437.400 FM
SO-50 20 Jun 03:35:00 03:39:02 27° 324° (NW) 03:43:03 436.795 FM
Oscar 16 20 Jun 03:43:00 03:47:58 51° 291° (WNW) 03:52:54 437.025 USB, Beacon 2401.1428
AO-Echo 20 Jun 03:53:39 03:58:46 64° 102° (ESE) 04:04:00 ?
Uribyol 2 20 Jun 03:57:51 04:02:56 52° 291° (WNW) 04:07:57 436.500 FM
Saudisat 1A 20 Jun 04:07:56 04:09:54 12° 16° (NNE) 04:11:52 436.775 MHz
PCSat 20 Jun 04:10:48 04:14:07 16° 334° (NNW) 04:17:27 145.825 MHz
Uosat F 20 Jun 04:14:14 04:18:57 38° 97° (E) 04:23:38 435.120 FM
AO-7 20 Jun 04:21:43 04:25:54 14° 84° (E) 04:30:04 29.400 - 29.500 MHz
TMSAT-1 20 Jun 04:25:03 04:29:47 32° 95° (E) 04:34:30 436.925 FM
KITSAT 1 20 Jun 04:37:34 04:42:55 20° 259° (WSW) 04:48:16 435.175 FM
Oscar 19 20 Jun 04:37:43 04:41:37 22° 300° (WNW) 04:45:30 437.125 CW, 437.150 USB
MaSat-1 20 Jun 04:38:17 04:40:40 29° 53° (NE) 04:42:55 437.345 MHz
Sapphire 20 Jun 04:47:09 04:49:29 13° 342° (NNW) 04:51:49 437.095 MHz 1200 baud AX-25 AFSK
ITAMSAT 1 20 Jun 05:05:02 05:08:27 18° 304° (WNW) 05:11:51 435.822 SSB
Gurwin Techsat 1B 20 Jun 05:05:43 05:11:04 85° 286° (WNW) 05:16:24 435.225 FM
AO-27 20 Jun 05:06:28 05:09:46 17° 304° (NW) 05:13:04 436.795 MHz FM
UOSAT-12 20 Jun 05:09:06 05:13:37 73° 310° (NW) 05:18:12 437.025 FM, 437.400 FM
SO-50 20 Jun 05:19:37 05:21:13 12° 348° (NNW) 05:22:49 436.795 FM
AO-Echo 20 Jun 05:33:19 05:37:09 22° 300° (WNW) 05:41:03 ?
Saudisat 1A 20 Jun 05:46:49 05:50:59 33° 39° (NE) 05:55:04 436.775 MHz
STRAND 1 20 Jun 05:50:47 05:55:31 39° 66° (ENE) 06:00:16 ?
Uosat F 20 Jun 05:53:12 05:57:42 33° 296° (WNW) 06:02:11 435.120 FM
TMSAT-1 20 Jun 06:04:52 06:09:50 41° 293° (WNW) 06:14:46 436.925 FM
AO-7 20 Jun 06:11:59 06:20:21 67° 105° (ESE) 06:28:39 29.400 - 29.500 MHz
Sapphire 20 Jun 06:34:19 06:35:33 11° 9° (N) 06:36:46 437.095 MHz 1200 baud AX-25 AFSK
Gurwin Techsat 1B 20 Jun 06:47:15 06:50:17 16° 305° (NW) 06:53:20 435.225 FM
UOSAT-12 20 Jun 06:51:22 06:54:35 19° 332° (NNW) 06:57:49 437.025 FM, 437.400 FM
SO-50 20 Jun 07:02:15 07:03:56 12° 13° (NNE) 07:05:37 436.795 FM
Saudisat 1A 20 Jun 07:26:29 07:30:49 44° 240° (WSW) 07:35:04 436.775 MHz
STRAND 1 20 Jun 07:30:12 07:34:47 32° 264° (W) 07:39:25 ?
PCSat 20 Jun 07:42:23 07:45:54 17° 27° (NNE) 07:49:25 145.825 MHz
AO-7 20 Jun 08:05:19 08:12:42 37° 306° (NW) 08:20:04 29.400 - 29.500 MHz
Sapphire 20 Jun 08:16:48 08:21:07 23° 35° (NE) 08:25:25 437.095 MHz 1200 baud AX-25 AFSK
Hamsat 20 Jun 08:20:10 08:24:36 86° 103° (ESE) 08:28:57 145.90 MHz
JAS-1B 20 Jun 08:32:52 08:38:37 59° 102° (ESE) 08:45:05 435.800 - 435.900 CW/SSB
SO-67 20 Jun 08:33:30 08:36:55 39° 98° (E) 08:40:18 435.3500 MHz FM
UOSAT-12 20 Jun 08:36:10 08:36:36 10° 357° (N) 08:37:02 437.025 FM, 437.400 FM
SO-50 20 Jun 08:42:03 08:46:04 29° 37° (NE) 08:50:01 436.795 FM
PCSat 20 Jun 09:25:10 09:30:33 56° 50° (NE) 09:35:53 145.825 MHz
JAS-2 20 Jun 09:48:34 09:52:43 22° 90° (E) 09:56:41 435.800 - 435.900 CW/SSB, 435.910 FM
Hamsat 20 Jun 09:57:58 10:00:01 13° 302° (WNW) 10:02:03 145.90 MHz
Sapphire 20 Jun 09:59:49 10:05:18 89° 237° (WSW) 10:10:44 437.095 MHz 1200 baud AX-25 AFSK
AO-7 20 Jun 10:00:25 10:03:05 12° 331° (NNW) 10:05:45 29.400 - 29.500 MHz
Oscar 11 20 Jun 10:04:35 10:07:39 18° 91° (E) 10:10:42 145.825 FM, Beacon 2401.500 USB
SO-67 20 Jun 10:07:40 10:10:06 17° 296° (WNW) 10:12:31 435.3500 MHz FM
UOSAT-12 20 Jun 10:16:11 10:18:46 15° 22° (NNE) 10:21:22 437.025 FM, 437.400 FM
HO-68 20 Jun 10:18:53 10:25:48 48° 100° (E) 10:32:41 435.675 MHz FM
RS-15 20 Jun 10:21:26 10:29:49 23° 100° (E) 10:37:56 29.354 - 29.394 USB, Beacon 29.352 USB
SO-50 20 Jun 10:22:30 10:26:57 53° 238° (WSW) 10:31:18 436.795 FM
JAS-1B 20 Jun 10:24:24 10:29:04 26° 300° (WNW) 10:34:05 435.800 - 435.900 CW/SSB
PCSat 20 Jun 11:09:09 11:13:40 27° 250° (WSW) 11:18:10 145.825 MHz
OPAL 20 Jun 11:29:40 11:34:07 32° 98° (E) 11:38:33 ?
JAS-2 20 Jun 11:32:58 11:38:20 55° 291° (WNW) 11:43:22 435.800 - 435.900 CW/SSB, 435.910 FM
Oscar 11 20 Jun 11:39:55 11:44:12 52° 289° (WNW) 11:48:26 145.825 FM, Beacon 2401.500 USB
Sapphire 20 Jun 11:44:51 11:47:57 16° 256° (WSW) 11:51:03 437.095 MHz 1200 baud AX-25 AFSK
UOSAT-12 20 Jun 11:55:38 12:00:05 45° 44° (NE) 12:04:31 437.025 FM, 437.400 FM
HO-68 20 Jun 12:06:48 12:13:26 42° 300° (WNW) 12:20:04 435.675 MHz FM
RS-15 20 Jun 12:28:31 12:40:26 78° 123° (ESE) 12:51:49 29.354 - 29.394 USB, Beacon 29.352 USB
Oscar 19 20 Jun 12:40:44 12:44:27 20° 59° (ENE) 12:48:10 437.125 CW, 437.150 USB
ITAMSAT 1 20 Jun 13:07:44 13:12:07 28° 62° (ENE) 13:16:31 435.822 SSB
OPAL 20 Jun 13:08:30 13:13:05 38° 296° (WNW) 13:17:39 ?
AO-27 20 Jun 13:09:05 13:13:32 29° 62° (ENE) 13:18:01 436.795 MHz FM

Developed and maintained by Chris Peat, Heavens-Above GmbH. Please read the updated FAQ before sending e-mail. Imprint. DLR
